FW6045 Weather Reports


Display with metric or nautical units.
time (UTC)temp
F
wind
direction
speed
MPH
gust
MPH
rain 1hr
in
rain 24hr
in
rain mn
in
humidity
%
barometer
mb
20260508224612 68 225 7.0 12.0 0.00 0.00 0.00 48 1008.9
20260508223055 68 214 10.0 20.0 0.00 0.00 0.00 47 1008.9
20260508221609 69 186 8.0 18.0 0.00 0.00 0.00 44 1008.8
20260508220055 68 207 10.0 19.0 0.00 0.00 0.00 43 1008.6
20260508214557 69 195 9.0 18.0 0.00 0.00 0.00 45 1008.6
20260508213055 69 188 9.0 19.0 0.00 0.00 0.00 44 1008.9
20260508211602 69 234 11.0 25.0 0.00 0.00 0.00 44 1008.8
20260508210110 70 219 10.0 23.0 0.00 0.00 0.00 42 1009.0
20260508204558 70 260 13.0 23.0 0.00 0.00 0.00 43 1009.1
20260508203102 70 225 11.0 24.0 0.00 0.00 0.00 43 1009.2
20260508201604 69 217 11.0 27.0 0.00 0.00 0.00 43 1009.8
20260508200110 70 237 11.0 27.0 0.00 0.00 0.00 43 1009.9
20260508194603 69 190 12.0 18.0 0.00 0.00 0.00 44 1010.3
20260508193105 69 209 10.0 24.0 0.00 0.00 0.00 44 1010.4
20260508191559 69 244 11.0 24.0 0.00 0.00 0.00 44 1010.6
20260508190057 68 202 12.0 19.0 0.00 0.00 0.00 44 1010.6
20260508184601 69 228 8.0 23.0 0.00 0.00 0.00 43 1010.6
20260508183137 68 206 11.0 24.0 0.00 0.00 0.00 43 1010.9
20260508181611 68 204 11.0 24.0 0.00 0.00 0.00 44 1011.1
20260508180107 68 221 15.0 22.0 0.00 0.00 0.00 43 1011.5
20260508174559 67 199 9.0 23.0 0.00 0.00 0.00 45 1011.6
20260508173104 67 196 13.0 25.0 0.00 0.00 0.00 44 1011.8
20260508171558 66 246 10.0 21.0 0.00 0.00 0.00 47 1012.3
20260508170100 66 261 12.0 20.0 0.00 0.00 0.00 46 1012.4
20260508164556 65 251 8.0 24.0 0.00 0.00 0.00 48 1012.8
20260508163105 65 186 11.0 22.0 0.00 0.00 0.00 49 1013.2
20260508161556 65 221 10.0 18.0 0.00 0.00 0.00 50 1013.3
20260508154601 64 225 12.0 23.0 0.00 0.00 0.00 50 1013.6
20260508153057 64 203 9.0 17.0 0.00 0.00 0.00 52 1014.0
20260508151603 62 202 12.0 23.0 0.00 0.00 0.00 50 1014.1
20260508150125 62 244 13.0 23.0 0.00 0.00 0.00 52 1014.2
20260508144604 61 244 7.0 22.0 0.00 0.00 0.00 54 1014.2
20260508143103 60 247 7.0 14.0 0.00 0.00 0.00 57 1014.5
20260508141603 58 207 5.0 12.0 0.00 0.00 0.00 60 1014.5
20260508140105 56 189 6.0 10.0 0.00 0.00 0.00 61 1014.5
20260508134559 55 147 5.0 9.0 0.00 0.00 0.00 62 1014.5
20260508133059 54 184 5.0 9.0 0.00 0.00 0.00 63 1014.6
20260508131601 53 223 5.0 10.0 0.00 0.00 0.00 64 1014.6
20260508130057 51 202 6.0 10.0 0.00 0.00 0.00 65 1014.6
20260508124603 50 189 7.0 11.0 0.00 0.00 0.00 66 1014.5
20260508123055 49 193 7.0 13.0 0.00 0.00 0.00 68 1014.5
20260508121556 48 190 8.0 14.0 0.00 0.00 0.00 70 1014.5
20260508120055 47 222 5.0 7.0 0.00 0.00 0.00 73 1014.3
20260508114603 46 218 4.0 7.0 0.00 0.00 0.00 75 1014.4
20260508113126 45 191 3.0 6.0 0.00 0.00 0.00 77 1014.0
20260508111601 45 192 5.0 8.0 0.00 0.00 0.00 77 1014.0
20260508110057 45 197 6.0 9.0 0.00 0.00 0.00 78 1013.9
20260508104607 45 182 6.0 9.0 0.00 0.00 0.00 76 1013.8
20260508103107 46 199 7.0 9.0 0.00 0.00 0.00 73 1013.7
20260508101559 46 204 6.0 9.0 0.00 0.00 0.00 75 1013.7
20260508100058 46 194 7.0 10.0 0.00 0.00 0.00 73 1013.7
20260508094609 46 189 7.0 9.0 0.00 0.00 0.00 71 1013.8
20260508093107 46 199 5.0 6.0 0.00 0.00 0.00 72 1013.9
20260508091559 46 194 4.0 6.0 0.00 0.00 0.00 71 1013.7
20260508090107 46 222 4.0 6.0 0.00 0.00 0.00 72 1013.5
20260508084558 46 229 4.0 7.0 0.00 0.00 0.00 71 1013.7
20260508083100 46 233 5.0 7.0 0.00 0.00 0.00 70 1013.7
20260508081621 47 236 5.0 8.0 0.00 0.00 0.00 69 1013.6
20260508080108 46 236 5.0 9.0 0.00 0.00 0.00 71 1013.7
20260508074607 47 235 6.0 8.0 0.00 0.00 0.00 67 1013.7
20260508073106 48 206 7.0 10.0 0.00 0.00 0.00 66 1013.4
20260508071602 48 219 4.0 6.0 0.00 0.00 0.00 65 1013.7
20260508070108 48 221 4.0 7.0 0.00 0.00 0.00 66 1013.9
20260508064609 48 219 5.0 9.0 0.00 0.00 0.00 65 1014.0
20260508063113 48 221 5.0 9.0 0.00 0.00 0.00 67 1014.2
20260508061603 49 221 5.0 8.0 0.00 0.00 0.00 65 1014.3
20260508054627 49 213 6.0 11.0 0.00 0.00 0.00 64 1014.5
20260508053056 50 209 6.0 10.0 0.00 0.00 0.00 63 1014.5
20260508051559 49 220 5.0 9.0 0.00 0.00 0.00 63 1014.5
20260508050056 49 217 5.0 8.0 0.00 0.00 0.00 63 1014.4
20260508044555 49 213 6.0 9.0 0.00 0.00 0.00 63 1014.4
20260508043058 49 232 6.0 8.0 0.00 0.00 0.00 65 1014.5
20260508041555 49 229 5.0 7.0 0.00 0.00 0.00 65 1014.6
20260508040104 50 217 4.0 8.0 0.00 0.00 0.00 64 1014.5
20260508034555 51 213 5.0 7.0 0.00 0.00 0.00 62 1014.5
20260508033058 51 197 4.0 7.0 0.00 0.00 0.00 64 1014.6
20260508031603 52 203 5.0 7.0 0.00 0.00 0.00 58 1014.5
20260508030104 52 196 4.0 7.0 0.00 0.00 0.00 61 1014.6
20260508024556 52 176 5.0 7.0 0.00 0.00 0.00 63 1014.5
20260508023057 53 171 5.0 8.0 0.00 0.00 0.00 58 1014.4
20260508021605 54 172 5.0 7.0 0.00 0.00 0.00 56 1014.2
20260508020100 55 179 4.0 6.0 0.00 0.00 0.00 51 1014.3
20260508014557 56 209 4.0 5.0 0.00 0.00 0.00 45 1014.2
20260508013058 56 222 4.0 5.0 0.00 0.00 0.00 44 1014.0
20260508011606 57 227 3.0 4.0 0.00 0.00 0.00 44 1013.9
20260508010108 57 227 3.0 4.0 0.00 0.00 0.00 43 1013.8
20260508004601 57 259 2.0 4.0 0.00 0.00 0.00 44 1013.8
20260508003102 58 264 2.0 3.0 0.00 0.00 0.00 43 1013.7
20260508001600 58 264 2.0 3.0 0.00 0.00 0.00 44 1013.4
20260508000120 59 264 2.0 7.0 0.00 0.00 0.00 42 1013.4
20260507234601 59 268 2.0 7.0 0.00 0.00 0.00 41 1013.4
20260507233103 59 317 3.0 8.0 0.00 0.00 0.00 40 1013.3
20260507231606 59 317 6.0 11.0 0.00 0.00 0.00 41 1013.4